Regional Weather Roundup
Issued by NWS

Home | Current Version | Previous Version | Graphics & Text | Print | Product List | Glossary On
Versions: 1 2 3 4 5 6 7 8 9 10 11 12 13 14 15 16 17 18 19 20 21 22 23 24 25 26 27 28 29 30 31 32 33 34 35 36 37 38 39 40 41 42 43 44 45 46 47 48 49 50
000
ASUS43 KMKX 300620
RWRWI

WISCONSIN REGIONAL WEATHER ROUNDUP
NATIONAL WEATHER SERVICE MILWAUKEE/SULLIVAN WI
100 AM CDT MON MAR 30 2015

NOTE: "FAIR" INDICATES FEW OR NO CLOUDS BELOW 12,000 FEET WITH NO
SIGNIFICANT WEATHER AND/OR OBSTRUCTIONS TO VISIBILITY.

WIZ001-002-006>008-014>016-023>028-300700-
NORTHWEST WISCONSIN

CITY           SKY/WX    TMP DP  RH WIND       PRES   REMARKS
SUPERIOR ARPT  CLEAR     34  26  70 SW7       29.85S WCI  28
6HR MIN TEMP:  34; 6HR MAX TEMP:  45;

ASHLAND        PTCLDY    36  25  64 SW7       29.83S WCI  30
6HR MIN TEMP:  33; 6HR MAX TEMP:  42;

HAYWARD        CLEAR     30  25  81 S5        29.86S WCI  25
6HR MIN TEMP:  28; 6HR MAX TEMP:  44;

SIREN          CLEAR     36  26  66 W7        29.90S WCI  30
6HR MIN TEMP:  35; 6HR MAX TEMP:  47;

CUMBERLAND     CLEAR     34  27  75 W9        29.90R WCI  26
RICE LAKE      CLEAR     36  27  69 W6        29.91S WCI  31
6HR MIN TEMP:  36; 6HR MAX TEMP:  47;

CHETEK         CLEAR     38  27  64 W7        29.90S WCI  33
6HR MIN TEMP:  38; 6HR MAX TEMP:  46;

LADYSMITH      PTCLDY    33  27  78 W5        29.89S WCI  29
6HR MIN TEMP:  34; 6HR MAX TEMP:  42;

EAU CLAIRE     CLEAR     36  26  67 W9        29.92R WCI  29
6HR MIN TEMP:  35; 6HR MAX TEMP:  48;

MENOMONIE      CLEAR     38  26  64 W6        29.93S WCI  33
6HR MIN TEMP:  38; 6HR MAX TEMP:  50;

NEW RICHMOND   CLEAR     33  25  70 W5        29.94S WCI  29
6HR MIN TEMP:  33; 6HR MAX TEMP:  47;

OSCEOLA        PTCLDY    35  26  72 W7        29.96S WCI  29
6HR MIN TEMP:  35; 6HR MAX TEMP:  49;

$$

WIZ003>005-009-010-017-018-300700-
NORTH CENTRAL WISCONSIN

CITY           SKY/WX    TMP DP  RH WIND       PRES   REMARKS
MANITOWISH WTR CLEAR     32  27  81 W7        29.79S WCI  26
6HR MIN TEMP:  32; 6HR MAX TEMP:  35;

ARBOR VITAE    CLEAR     34  29  82 W5        29.80S WCI  30
6HR MIN TEMP:  34; 6HR MAX TEMP:  37;

WOODRUFF       CLEAR     34  29  82 W5        29.80S WCI  30
6HR MIN TEMP:  34; 6HR MAX TEMP:  37;

RHINELANDER    CLEAR     31  26  82 W9        29.81R WCI  23
6HR MIN TEMP:  30; 6HR MAX TEMP:  36; 6HR PCP:  0.01;

EAGLE RIVER    CLEAR     33  26  77 W10       29.78R WCI  24
6HR MIN TEMP:  33; 6HR MAX TEMP:  35;

LAND O LAKES   FAIR      33  28  82 W6        29.77R WCI  28
6HR MIN TEMP:  33; 6HR MAX TEMP:  36;

PHILLIPS       PTCLDY    31  27  82 CALM      29.84S
6HR MIN TEMP:  32; 6HR MAX TEMP:  37;

TOMAHAWK       CLEAR     33  26  77 CALM      29.83S
6HR MIN TEMP:  33; 6HR MAX TEMP:  37;

MEDFORD        PTCLDY    34  27  77 W7        29.86S WCI  28
6HR MIN TEMP:  34; 6HR MAX TEMP:  37;

MERRILL        CLEAR     34  28  80 W7        29.84S WCI  28
6HR MIN TEMP:  34; 6HR MAX TEMP:  38;

$$

WIZ029-030-035-036-043>047-300700-
CENTRAL WISCONSIN

CITY           SKY/WX    TMP DP  RH WIND       PRES   REMARKS
WAUSAU         CLEAR     35  29  78 W10       29.84R WCI  27
6HR MIN TEMP:  34; 6HR MAX TEMP:  39; 6HR PCP: TRACE;

MOSINEE        CLEAR     34  30  86 W8        29.87S WCI  27
MARSHFIELD     CLEAR     37  27  67 NW9       29.88R WCI  30
6HR MIN TEMP:  35; 6HR MAX TEMP:  40;

STEVENS POINT  PTCLDY    34  28  79 W3        29.88R
6HR MIN TEMP:  34; 6HR MAX TEMP:  39;

WAUPACA        PTCLDY    38  30  73 W8        29.87S WCI  32
6HR MIN TEMP:  37; 6HR MAX TEMP:  43;

WAUTOMA        CLOUDY    35  32  89 W6        29.90R WCI  30
6HR MIN TEMP:  35; 6HR MAX TEMP:  42;

WISC RAPIDS    FAIR      32  26  78 W6        29.91R WCI  26
6HR MIN TEMP:  30; 6HR MAX TEMP:  42;

CAMP DOUGLAS   CLEAR     32  31  94 W9        29.92R WCI  24
6HR MIN TEMP:  28; 6HR MAX TEMP:  43;

$$

WIZ011>013-019>022-031-037>040-048>050-300700-
NORTHEAST WISCONSIN

CITY           SKY/WX    TMP DP  RH WIND       PRES   REMARKS
ANTIGO         CLEAR     33  28  82 W12       29.81S WCI  25
6HR MIN TEMP:  33; 6HR MAX TEMP:  36;

SHAWANO        CLEAR     39  29  68 W8        29.84R WCI  33
6HR MIN TEMP:  39; 6HR MAX TEMP:  41;

OCONTO         CLEAR     34  30  83 W8        29.79S WCI  28
6HR MIN TEMP:  34; 6HR MAX TEMP:  40;

STURGEON BAY   CLEAR     36  28  75 W7        29.80S WCI  30
6HR MIN TEMP:  36; 6HR MAX TEMP:  37;

GREEN BAY      CLEAR     37  30  75 W10       29.83R WCI  30
6HR MIN TEMP:  37; 6HR MAX TEMP:  40; 6HR PCP: TRACE;

MANITOWOC      CLEAR     39  30  70 W13       29.83R WCI  31
6HR MIN TEMP:  39; 6HR MAX TEMP:  41; 6HR PCP: TRACE;

APPLETON       CLEAR     34  28  80 W9        29.86R WCI  26
CLINTONVILLE   PTCLDY    36  28  75 W8        29.85R WCI  29
OSHKOSH        PTCLDY    37  30  75 W7        29.87R WCI  32
6HR MIN TEMP:  37; 6HR MAX TEMP:  41;

$$

WIZ032>034-041-042-053>061-300700-
SOUTHWEST WISCONSIN

CITY           SKY/WX    TMP DP  RH WIND       PRES   REMARKS
LA CROSSE      CLEAR     36  27  69 CALM      29.96R
6HR MIN TEMP:  36; 6HR MAX TEMP:  52;

SPARTA         CLEAR     38  27  65 SW5       29.95R WCI  34
6HR MIN TEMP:  36; 6HR MAX TEMP:  46;

VIROQUA        CLEAR     38  29  71 W9        29.95R WCI  31
6HR MIN TEMP:  38; 6HR MAX TEMP:  45;

BOSCOBEL       CLEAR     41  27  57 SW7       29.98R
6HR MIN TEMP:  40; 6HR MAX TEMP:  49;

PRAIRIE DU CHI CLEAR     40  28  62 N5        29.99R
6HR MIN TEMP:  40; 6HR MAX TEMP:  46;

PLATTEVILLE    CLEAR     36  29  76 SW8       29.98R WCI  30
6HR MIN TEMP:  36; 6HR MAX TEMP:  45;

$$

WIZ056-057-062-063-064-067-068-300700-
SOUTH CENTRAL WISCONSIN

CITY           SKY/WX    TMP DP  RH WIND       PRES   REMARKS
REEDSBURG      CLEAR     31  30  95 CALM      29.93R
6HR MIN TEMP:  29; 6HR MAX TEMP:  43;

BARABOO/DELLS  CLEAR     37  28  72 W7        29.92S WCI  31
6HR MIN TEMP:  31; 6HR MAX TEMP:  43;

LONE ROCK      CLEAR     41  28  60 W9        29.96R
6HR MIN TEMP:  38; 6HR MAX TEMP:  47;

MINERAL POINT  CLEAR     37  30  75 W10       29.95R WCI  30
MADISON        CLEAR     37  29  72 W5        29.92R WCI  33
6HR MIN TEMP:  31; 6HR MAX TEMP:  43;

MIDDLETON      CLEAR     37  29  72 W6        29.93R WCI  33
6HR MIN TEMP:  36; 6HR MAX TEMP:  44;

WATERTOWN      MOCLDY    37  35  94 W3        29.90R
6HR MIN TEMP:  37; 6HR MAX TEMP:  42;

MONROE         CLEAR     37  32  81 W15       29.95R WCI  28
JANESVILLE     CLEAR     37  30  75 W10       29.94R WCI  30
$$

WIZ051-052-058>065-066-070>072-300700-
SOUTHEAST WISCONSIN

CITY           SKY/WX    TMP DP  RH WIND       PRES   REMARKS
MILWAUKEE      PTCLDY    41  30  65 W6        29.90R
6HR MIN TEMP:  40; 6HR MAX TEMP:  46; 6HR PCP: TRACE;

WAUKESHA       CLOUDY    36  32  87 CALM      29.91R
MILWAUKEE/TIMM MOCLDY    37  32  81 W6        29.90R WCI  33
RACINE         PTCLDY    39  32  76 W6        29.92R WCI  35
6HR MIN TEMP:  39; 6HR MAX TEMP:  46;

BURLINGTON     MOCLDY    32  31  96 SW7       29.92R WCI  26
6HR MIN TEMP:  31; 6HR MAX TEMP:  43;

KENOSHA        MOCLDY    36  33  89 W9        29.91S WCI  29
6HR MIN TEMP:  34; 6HR MAX TEMP:  46;

FOND DU LAC    CLOUDY    39  30  70 W9        29.88R WCI  33
6HR MIN TEMP:  38; 6HR MAX TEMP:  42;

SHEBOYGAN      CLEAR     38  29  70 W10       29.85R WCI  31
6HR MIN TEMP:  38; 6HR MAX TEMP:  41;

WEST BEND      MOCLDY    37  30  75 W12       29.88R WCI  30
JUNEAU         CLOUDY    36  32  88 W6        29.91R WCI  31
6HR MIN TEMP:  36; 6HR MAX TEMP:  41;

$$

LSZ147-162-300700-
LAKE SUPERIOR

STATION/POSITION TIME  TEMP    WIND        PRES    WAVE
                       AIR SEA DIR/SP/G            HT/PER
                 (UTC) (F)     (DEG/KT/KT) (MB)    (FT/S)
DEVILS ISLAND    0600   37     260/ 23/ 26 1008.6F
PORT WING        0540   41     240/ 10/ 14 1010.2F
SAXON HARBOR     0500   38     220/  7/ 11 1009.5S
$$

LMZ867-665-643>646-300700-
LAKE MICHIGAN

STATION/POSITION TIME  TEMP    WIND        PRES    WAVE


USA.gov is the U.S. government's official web portal to all federal, state and local government web resources and services.